sat.trackr.live / text

‹ back to catalog

STARLINK-2395

NORAD 47814 · 2021-018AD

PAYLOAD ACTIVE UNKNOWN

§ Identity

Operator
Country
US
Launch date
2021-03-11
Launch site
AFETR
Launch vehicle
Mass (kg)
RCS (m²)

Purposes: comms

External: N2YO · Heavens-Above · Gunter

§ Orbital elements

Epoch: 2026-09-15T20:17:19.456512Z

Period
93.82 min
Inclination
53.1568°
Eccentricity
0.0000974
Mean motion
15.34826688 rev/d
Perigee alt
460.8 km
Apogee alt
462.1 km
Semi-major
6,839.6 km
B*
1.0751e-3
RAAN
77.3523°
Arg perigee
138.0364°
Mean anomaly
222.0714°
Rev number
30,593

§ Raw data

STARLINK-23951 47814U 21018AD  26258.84536408  .00036621  00000+0  10751-2 0  99902 47814  53.1568  77.3523 0000974 138.0364 222.0714 15.34826688305935

JSON: /api/v1/satellites/47814 · /tle

For live sub-satellite position, see the globe view (requires WebGL).

§ Visibility from observer

Set your observer location to see the next 7 days of passes ≥ 10°. The values pass through the URL so the page stays shareable.

No JS? Fill the form by hand. The geolocation button needs JavaScript.